Location: Bettgenhausen
(50.6463°N, 7.5681°E)
Time: 17:38:06
(UTC+00:00)

STARLINK-24 - Pass Details

Date: 27 February 2020
Orbit: 527 x 529 km, 53.0° (Epoch: 27 March)

Event Time Altitude Azimuth Distance (km) Brightness Sun altitude
Rises 18:35:20 0° 277° (W) 2,664 9.1 -14.8°
Reaches altitude 10° 18:37:34 10° 281° (WNW) 1,775 7.6 -15.2°
Maximum altitude 18:41:34 61° 3° (N) 606 3.8 -15.8°
Enters shadow 18:43:21 30° 72° (ENE) 966 4.3 -16.1°
